Location: Newark
(55.6749°N, 3.7770°W)
Time: 16:24:10
(UTC+00:00)

Envisat - Visible Passes

Search period start: 07 December 2019 00:00
Search period end: 17 December 2019 00:00
Orbit: 764 x 766 km, 98.1° (Epoch: 07 December)

Date Brightness Start Highest point End Pass type
(mag) Time Alt. Az. Time Alt. Az. Time Alt. Az.
07 Dec 4.8 06:30:17 10° NNE 06:34:56 34° E 06:39:33 10° SSE visible
07 Dec 2.9 17:52:08 10° SSE 17:57:15 89° NE 18:02:22 10° NNW visible
07 Dec 5.6 19:33:32 10° SW 19:37:00 18° W 19:40:28 10° NW visible
08 Dec 5.8 05:54:09 10° NE 05:57:45 19° E 06:01:20 10° SE visible
08 Dec 3.0 07:32:20 10° NNE 07:37:28 85° WNW 07:42:34 10° SSW visible
08 Dec 3.1 17:15:39 10° SE 17:20:32 50° ENE 17:25:28 10° N visible
08 Dec 4.7 18:55:14 10° SSW 18:59:48 33° W 19:04:23 10° NNW visible
09 Dec 3.9 06:55:36 10° NNE 07:00:37 53° E 07:05:34 10° S visible
09 Dec 3.8 16:39:40 10° ESE 16:44:01 30° ENE 16:48:23 10° N visible
09 Dec 3.5 18:17:46 10° S 18:22:47 60° WSW 18:27:51 10° NNW visible
09 Dec 6.1 20:01:14 10° W 20:02:55 12° W 20:04:37 10° WNW visible
10 Dec 5.1 06:19:08 10° NNE 06:23:33 29° E 06:27:57 10° SSE visible
10 Dec 2.9 17:40:53 10° SSE 17:45:58 76° ENE 17:51:04 10° NNW visible
10 Dec 5.4 19:21:42 10° SW 19:25:34 22° W 19:29:28 10° NW visible
11 Dec 6.0 05:43:13 10° NE 05:46:19 16° E 05:49:23 10° ESE visible
11 Dec 3.2 07:21:03 10° NNE 07:26:11 81° ESE 07:31:17 10° SSW visible
11 Dec 3.3 17:04:32 10° SE 17:09:18 43° ENE 17:14:07 10° N visible
11 Dec 4.4 18:43:41 10° SSW 18:48:25 39° W 18:53:13 10° NNW visible
12 Dec 4.3 06:44:22 10° NNE 06:49:16 44° E 06:54:07 10° S visible
12 Dec 3.9 16:28:43 10° ESE 16:32:50 26° NE 16:36:58 10° N visible
12 Dec 3.2 18:06:24 10° S 18:11:28 72° WSW 18:16:35 10° NNW visible
12 Dec 5.9 19:48:48 10° WSW 19:51:27 14° W 19:54:06 10° NW visible
13 Dec 5.4 06:08:01 10° NE 06:12:09 24° E 06:16:16 10° SE visible
13 Dec 3.0 07:46:35 10° NNE 07:51:40 68° WNW 07:56:42 10° SSW visible
13 Dec 2.9 17:29:41 10° SSE 17:34:42 64° ENE 17:39:45 10° N visible
13 Dec 5.1 19:09:57 10° SSW 19:14:10 26° W 19:18:23 10° NW visible
14 Dec 6.1 05:32:27 10° NE 05:34:51 13° E 05:37:14 10° ESE visible
14 Dec 3.4 07:09:46 10° NNE 07:14:53 68° ESE 07:19:56 10° S visible
14 Dec 3.5 16:53:29 10° SE 16:58:06 36° ENE 17:02:45 10° N visible
14 Dec 4.0 18:32:11 10° S 18:37:04 47° W 18:42:00 10° NNW visible
15 Dec 4.6 06:33:11 10° NNE 06:37:54 37° E 06:42:35 10° SSE visible
15 Dec 3.0 17:55:05 10° SSE 18:00:10 85° WSW 18:05:18 10° NNW visible
15 Dec 5.7 19:36:43 10° SW 19:40:00 17° W 19:43:16 10° NW visible
16 Dec 5.7 05:56:58 10° NE 06:00:44 20° E 06:04:29 10° SE visible
16 Dec 3.0 07:35:17 10° NNE 07:40:24 80° WNW 07:45:29 10° SSW visible
16 Dec 3.1 17:18:31 10° SE 17:23:27 54° ENE 17:28:25 10° N visible
16 Dec 4.8 18:58:17 10° SSW 19:02:46 31° W 19:07:16 10° NNW visible
